Miscellaneous Local Product
Issued by NWS North Platte, NE

Home | Current Version | Previous Version | Text Only | Print | Product List | Glossary On
Versions: 1 2 3 4 5 6 7 8 9 10 11 12 13 14 15 16 17 18 19 20 21 22 23 24 25 26 27 28 29 30 31 32 33 34 35 36 37 38 39 40 41 42 43 44 45 46 47 48 49 50
000
AXUS43 KLBF 232310
MISLBF


WESTERN AND NORTH CENTRAL NEBRASKA HOURLY WEATHER ROUNDUP
NATIONAL WEATHER SERVICE NORTH PLATTE NE
600 PM CDT THU MAR 23 2017

NOTE: "FAIR" INDICATES FEW OR NO CLOUDS BELOW 12,000 FEET WITH NO
SIGNIFICANT WEATHER AND/OR OBSTRUCTIONS TO VISIBILITY.

NOTE: STATIONS NOT REPORTING VARIABLES SUCH AS SKY/WEATHER OR
PRESSURE ARE PROVIDED BY RAWS AND APRS NETWORKS AND ARE NOT UNDER
NATIONAL WEATHER SERVICE QUALITY CONTROL.

...OBSERVATIONS IN AND NEAR THE EASTERN PANHANDLE OF NEBRASKA...

CITY           SKY/WX    TMP DP  RH WIND       PRES   REMARKS
PINE RIDGE     CLOUDY    60  41  49 N17G25    29.65R
CHADRON        CLOUDY    57  42  57 N28G36    29.67R
ALLIANCE       SUNNY     66  40  38 N30G37    29.56S
SIDNEY         SUNNY     74  27  17 E12       29.53S
CRESCENT LAKE    N/A     72  33  24 NE9         N/A
$$

...OBSERVATIONS IN NORTHERN NEBRASKA AND FAR SOUTHERN SOUTH DAKOTA...

CITY           SKY/WX    TMP DP  RH WIND       PRES   REMARKS
WINNER         FAIR      61  48  62 S9        29.61R
VALENTINE      MOSUNNY   66  44  45 CALM      29.60R
THEDFORD       SUNNY     71  52  51 SE7       29.57S
AINSWORTH      SUNNY     61  51  70 S6        29.59F
O`NEILL        CLOUDY    57  55  92 CALM      29.62S FOG
ORD            CLOUDY    64  57  78 NE3       29.57R HAZE
BROKEN BOW     SUNNY     67  31  26 NE9       29.55F
VALENTINE NWR    N/A     66  49  55 S8          N/A
HALSEY           N/A     68  51  53 S5G13       N/A
BUTTE            N/A     53  51  94 S6          N/A
CHAMBERS         N/A     58  55  91 CALM        N/A
EWING            N/A     59  55  88 S6          N/A
$$

...OBSERVATIONS IN SOUTHWEST NEBRASKA AND FAR NORTHEAST COLORADO...

CITY           SKY/WX    TMP DP  RH WIND       PRES   REMARKS
WRAY           FAIR      82  18   9 S17       29.48F
HOLYOKE        FAIR      77  45  31 E17       29.49F
IMPERIAL       MOSUNNY   75  45  34 E15       29.48F
OGALLALA       SUNNY     76  44  31 E10       29.52S
NORTH PLATTE   SUNNY     74  56  53 E7        29.53F
MCCOOK         PTSUNNY   83  48  29 S13       29.46F
LEXINGTON      SUNNY     80  53  40 S23G32    29.51F
STAPLETON        N/A     69  57  65 CALM        N/A
GOTHENBURG       N/A     74  56  53 NW6         N/A
CALLAWAY         N/A     65  61  86 E6          N/A
$$

...OBSERVATIONS IN CENTRAL LINCOLN COUNTY AREA...

CITY           SKY/WX    TMP DP  RH WIND       PRES   REMARKS
N.P. AIRPORT   SUNNY     74  56  53 E7        29.53F
N.P. DOWNTOWN    N/A     70  58  64 NE3         N/A
N.P. SOUTHEAST   N/A     70  57  63 NE3         N/A
N.P. HILLCREST   N/A     70  57  62 E6          N/A
$$

...SOME OBSERVATIONS FROM AROUND THE REGION...

CITY           SKY/WX    TMP DP  RH WIND       PRES   REMARKS
DENVER         CLOUDY    72   7   8 SW17G29   29.53R
LIMON          CLOUDY    66  23  19 W10G33    29.58R
ASPEN          LGT SNOW  36  33  89 CALM      29.80R FOG
LARAMIE        CLOUDY    58  11  15 SW22      29.69R
GILLETTE       LGT RAIN  40  32  73 N14       29.84R WCI  32
CHEYENNE       CLOUDY    59  28  30 NW17G33   29.64R
SCOTTSBLUFF    CLOUDY    63  38  39 N16G23    29.59R THUNDER
GRAND ISLAND   SUNNY     73  58  59 S16G24    29.59F
OMAHA          PTSUNNY   75  51  43 S14       29.65F
SIOUX FALLS    CLOUDY    49  42  77 E7        29.68S
PIERRE         PTSUNNY   60  42  51 NE6       29.62R
RAPID CITY     LGT RAIN  47  42  83 NW25G33   29.73R
BISMARCK       LGT RAIN  42  38  85 CALM      29.77R
KANSAS CITY    MOSUNNY   79  52  38 S21G32    29.76F
HILL CITY      PTSUNNY   82  51  34 S28G44    29.53F
WICHITA        MOSUNNY   81  51  35 S23G38    29.69F
DODGE CITY     CLOUDY    80  47  31 S33G43    29.58F HAZE
OKLAHOMA CITY  MOSUNNY   82  44  26 S29G44    29.77F
DALLAS         MOSUNNY   84  49  29 S24G41    29.86F
AMARILLO       PTSUNNY   77  50  38 S39G48    29.59F
$$




USA.gov is the U.S. government's official web portal to all federal, state and local government web resources and services.